Find Starlink 1736

NORAD ID: 46585 Int'l Des: 2020-070 Owner: SPXS Country: US Constellation: starlink operational
LEOCIRCULAR

リアルタイム位置

3D地球を読み込み中...

Starlink 1736について

説明を読み込み中...

次回通過

Passes for default location (London). Set your location on the main map for personalized predictions.

高度履歴

Loading altitude history...

軌道要素

1 46585U 20070BF 26105.25057586 .00084990 00000-0 53666-3 0 9998
2 46585 53.0376 294.8819 0004337 270.5609 89.4913 15.75915257306102
Epoch: Apr 15, 2026 • Age: 5 hours

現在のステータス

高度 348.0 km
速度 7.70 km/s
衛星直下点 40.60°N, 63.63°E
打ち上げ日 Oct 6, 2020
運用期間 5.5 years
タイプ internet

技術仕様

分類 Payload
質量 260.00 kg
乾燥質量 248.00 kg
総質量 260.00 kg
長さ 0.20 m
直径 2.80 m
スパン 9.00 m
形状 Box + pan
製造者 SPXS
バスタイプ Starlink
フェーズステータス In Orbit
所有者/国 SPXS/US

Most Searched